McGuire AFB, NJ

12:29 PM EDT on June 29, 2017 (GMT -0400)
McGuire Air Force Base

Weather History for KWRI - April, 2014

Change the Weather History Date:

Sunday, April 20, 2014

  Actual Average Record
Temperature  
Mean Temperature 45 °F -  
Max Temperature 54 °F 62 °F 86 °F (2005)
Min Temperature 36 °F 41 °F 33 °F (1999)
Degree Days  
Heating Degree Days 20    
Moisture  
Dew Point 28 °F    
Average Humidity 49    
Maximum Humidity 75    
Minimum Humidity 35    
Precipitation  
Precipitation 0.00 in - - ()
Sea Level Pressure  
Sea Level Pressure 30.40 in    
Wind  
Wind Speed 9 mph (ENE)    
Max Wind Speed 15 mph    
Max Gust Speed 23 mph    
Visibility 10 miles    
Events      
Averages and records for this station are not official NWS values.
T = Trace of Precipitation, MM = Missing Value Source: NWS Daily Summary

Daily Weather History Graph

Daily Weather History Graph

Search for Another Location

Airport or City:

Trip Planner

Search our weather history database for the weather conditions in past years. The results will help you decide how hot, cold, wet, or windy it might be!

Date:

Astronomy

Apr. 20, 2014 Rise Set
Actual Time 6:13 AM EDT 7:41 PM EDT
Civil Twilight 5:44 AM EDT 8:10 PM EDT
Nautical Twilight 5:10 AM EDT 8:44 PM EDT
Astronomical Twilight 4:34 AM EDT 9:21 PM EDT
Moon 12:19 AM EDT (4/20) 10:31 AM EDT (4/20)
Length of Visible Light 14h 25m
Length of Day
13h 28m
Waning Gibbous, 69% of the Moon is Illuminated
Apr 20
Waning Gibbous
Apr 22
Last Quarter
Apr 29
New
May 6
First Quarter
May 14
Full

Hourly Weather History & Observations

Time (EDT) Temp. Windchill Dew Point Humidity Pressure Visibility Wind Dir Wind Speed Gust Speed Precip Events Conditions
12:58 AM 41.5 °F 38.6 °F 34.0 °F 75% 30.33 in 10.0 mi North 4.6 mph - N/A   Clear
1:58 AM 45.3 °F 43.0 °F 31.8 °F 59% 30.34 in 10.0 mi NNE 4.6 mph - N/A   Clear
2:58 AM 41.5 °F 38.6 °F 30.2 °F 64% 30.35 in 10.0 mi North 4.6 mph - N/A   Clear
3:58 AM 44.2 °F 39.2 °F 30.9 °F 60% 30.34 in 10.0 mi NNE 9.2 mph - N/A   Clear
4:58 AM 45.0 °F 39.3 °F 32.9 °F 63% 30.37 in 10.0 mi NE 11.5 mph - N/A   Clear
5:58 AM 45.7 °F 39.8 °F 35.4 °F 67% 30.40 in 10.0 mi East 12.7 mph 21.9 mph N/A   Clear
6:58 AM 45.0 °F 39.7 °F 31.8 °F 60% 30.42 in 10.0 mi ENE 10.4 mph - N/A   Clear
7:58 AM 46.4 °F 40.1 °F 29.1 °F 51% 30.43 in 10.0 mi ENE 15.0 mph - N/A   Clear
8:58 AM 47.8 °F - 28.8 °F 48% 30.45 in 10.0 mi ENE 15.0 mph - N/A   Clear
9:58 AM 49.1 °F - 28.9 °F 46% 30.48 in 10.0 mi ENE 15.0 mph 20.7 mph N/A   Partly Cloudy
10:58 AM 50.4 °F - 27.1 °F 41% 30.48 in 10.0 mi East 15.0 mph 23.0 mph N/A   Partly Cloudy
11:58 AM 51.8 °F - 27.9 °F 40% 30.48 in 10.0 mi East 15.0 mph - N/A   Partly Cloudy
12:58 PM 52.7 °F - 27.1 °F 37% 30.46 in 10.0 mi East 13.8 mph 20.7 mph N/A   Partly Cloudy
1:13 PM 53.6 °F - 26.6 °F 35% 30.45 in 10.0 mi ENE 13.8 mph - N/A   Partly Cloudy
1:58 PM 53.8 °F - 27.3 °F 36% 30.45 in 10.0 mi ENE 9.2 mph 20.7 mph N/A   Partly Cloudy
2:05 PM 53.6 °F - 28.4 °F 38% 30.44 in 10.0 mi NE 12.7 mph 20.7 mph N/A   Partly Cloudy
2:58 PM 53.4 °F - 26.6 °F 36% 30.43 in 10.0 mi East 11.5 mph - N/A   Clear
3:58 PM 53.6 °F - 27.3 °F 36% 30.41 in 10.0 mi ESE 12.7 mph - N/A   Partly Cloudy
4:58 PM 51.8 °F - 27.5 °F 39% 30.40 in 10.0 mi East 12.7 mph - N/A   Partly Cloudy
5:58 PM 50.0 °F - 23.7 °F 36% 30.40 in 10.0 mi ENE 11.5 mph - N/A   Clear
6:58 PM 47.8 °F - 22.8 °F 37% 30.40 in 10.0 mi East 6.9 mph - N/A   Clear
7:58 PM 43.3 °F 39.9 °F 22.5 °F 44% 30.38 in 10.0 mi ENE 5.8 mph - N/A   Clear
8:58 PM 39.9 °F 36.7 °F 22.3 °F 49% 30.38 in 10.0 mi NE 4.6 mph - N/A   Clear
9:58 PM 39.0 °F 36.8 °F 23.2 °F 53% 30.37 in 10.0 mi NE 3.5 mph - N/A   Clear
10:58 PM 37.2 °F 34.7 °F 23.7 °F 58% 30.35 in 10.0 mi NNE 3.5 mph - N/A   Clear
11:58 PM 36.3 °F 32.5 °F 23.9 °F 61% 30.32 in 10.0 mi North 4.6 mph - N/A   Clear